Location: La Comballaz
(46.3780°N, 7.0817°E)
Time: 19:52:11
(UTC+00:00)

NOSS 3-4 (C) - Pass Details

Date: 09 April 2020
Orbit: 894 x 1319 km, 63.4° (Epoch: 01 June)

Event Time Altitude Azimuth Distance (km) Brightness Sun altitude
Rises 19:25:36 0° 319° (NW) 3,841 8.0 -12.8°
Reaches altitude 10° 19:28:09 10° 316° (NW) 2,942 7.2 -13.2°
Maximum altitude 19:35:05 62° 238° (WSW) 1,306 4.3 -14.3°
Enters shadow 19:42:39 10° 160° (SSE) 3,203 5.7 -15.4°
